| time (UTC) | temp F | wind direction | speed MPH | gust MPH | rain 1hr in | rain 24hr in | rain mn in | humidity % | barometer mb |
| 20260508063044 | 46 | 107 | 0.0 | 0.0 | 0.00 | 0.03 | 0.00 | 73 | 1015.1 |
| 20260508061514 | 46 | 107 | 0.0 | 0.0 | 0.00 | 0.03 | 0.00 | 75 | 1015.0 |
| 20260508060016 | 46 | 107 | 0.0 | 0.0 | 0.00 | 0.03 | 0.00 | 75 | 1014.9 |
| 20260508054534 | 46 | 107 | 0.0 | 0.0 | 0.00 | 0.03 | 0.00 | 75 | 1014.8 |
| 20260508053024 | 47 | 107 | 0.0 | 0.0 | 0.00 | 0.03 | 0.00 | 75 | 1014.4 |
| 20260508051556 | 47 | 107 | 0.0 | 0.0 | 0.00 | 0.03 | 0.00 | 76 | 1014.3 |
| 20260508050050 | 47 | 107 | 0.0 | 0.0 | 0.00 | 0.03 | 0.00 | 76 | 1014.1 |
| 20260508044600 | 47 | 107 | 0.0 | 0.0 | 0.00 | 0.03 | 0.00 | 76 | 1013.9 |
| 20260508043056 | 48 | 107 | 0.0 | 0.0 | 0.00 | 0.03 | 0.00 | 75 | 1013.7 |
| 20260508041510 | 48 | 107 | 0.0 | 0.0 | 0.00 | 0.03 | 0.03 | 75 | 1013.7 |
| 20260508040107 | 49 | 107 | 0.0 | 0.0 | 0.00 | 0.03 | 0.03 | 74 | 1013.4 |
| 20260508034523 | 49 | 107 | 0.0 | 0.0 | 0.00 | 0.03 | 0.03 | 73 | 1013.4 |
| 20260508033017 | 50 | 107 | 0.0 | 0.0 | 0.00 | 0.03 | 0.03 | 71 | 1013.3 |
| 20260508031525 | 50 | 107 | 0.0 | 0.0 | 0.00 | 0.07 | 0.03 | 71 | 1013.1 |
| 20260508030030 | 51 | 107 | 0.0 | 0.0 | 0.00 | 0.07 | 0.03 | 70 | 1013.0 |
| 20260508024555 | 51 | 107 | 0.0 | 0.0 | 0.00 | 0.07 | 0.03 | 68 | 1012.9 |
| 20260508023050 | 52 | 107 | 0.0 | 0.0 | 0.00 | 0.07 | 0.03 | 67 | 1012.6 |
| 20260508021506 | 52 | 107 | 0.0 | 0.0 | 0.00 | 0.07 | 0.03 | 65 | 1012.4 |
| 20260508020012 | 53 | 107 | 0.0 | 0.0 | 0.00 | 0.07 | 0.03 | 64 | 1012.0 |
| 20260508014523 | 54 | 107 | 0.0 | 0.0 | 0.00 | 0.07 | 0.03 | 62 | 1011.9 |
| 20260508013019 | 55 | 107 | 0.0 | 0.0 | 0.00 | 0.07 | 0.03 | 60 | 1011.5 |
| 20260508011532 | 56 | 107 | 0.0 | 0.0 | 0.00 | 0.07 | 0.03 | 57 | 1011.3 |
| 20260508010042 | 58 | 107 | 0.0 | 0.0 | 0.00 | 0.07 | 0.03 | 51 | 1011.1 |
| 20260508004511 | 59 | 112 | 0.0 | 0.0 | 0.00 | 0.07 | 0.03 | 50 | 1011.2 |
| 20260508003015 | 60 | 112 | 0.0 | 0.0 | 0.00 | 0.07 | 0.03 | 46 | 1010.9 |
| 20260508001539 | 60 | 110 | 0.0 | 0.0 | 0.00 | 0.07 | 0.03 | 45 | 1010.8 |
| 20260508000032 | 61 | 109 | 0.0 | 6.0 | 0.00 | 0.07 | 0.03 | 44 | 1010.7 |
| 20260507234508 | 61 | 124 | 0.0 | 5.0 | 0.00 | 0.07 | 0.03 | 44 | 1010.5 |
| 20260507233055 | 62 | 117 | 0.0 | 10.0 | 0.00 | 0.07 | 0.03 | 43 | 1010.2 |
| 20260507233001 | 62 | 134 | 0.0 | 10.0 | 0.00 | 0.07 | 0.03 | 43 | 1010.2 |
| 20260507231515 | 64 | 137 | 0.0 | 5.0 | 0.00 | 0.07 | 0.03 | 43 | 1010.1 |
| 20260507230013 | 65 | 132 | 3.0 | 11.0 | 0.00 | 0.07 | 0.03 | 41 | 1009.9 |
| 20260507224545 | 65 | 162 | 0.0 | 9.0 | 0.00 | 0.07 | 0.03 | 43 | 1009.6 |
| 20260507223033 | 65 | 131 | 0.0 | 8.0 | 0.00 | 0.07 | 0.03 | 45 | 1009.6 |
| 20260507221503 | 66 | 151 | 1.0 | 7.0 | 0.00 | 0.07 | 0.03 | 47 | 1009.2 |
| 20260507220006 | 64 | 125 | 0.0 | 8.0 | 0.00 | 0.07 | 0.03 | 52 | 1009.0 |
| 20260507214530 | 63 | 85 | 0.0 | 1.0 | 0.00 | 0.07 | 0.03 | 62 | 1008.9 |
| 20260507213036 | 63 | 69 | 0.0 | 0.0 | 0.00 | 0.07 | 0.03 | 61 | 1009.1 |
| 20260507211557 | 62 | 69 | 0.0 | 0.0 | 0.00 | 0.07 | 0.03 | 63 | 1009.0 |
| 20260507210046 | 63 | 68 | 1.0 | 6.0 | 0.00 | 0.07 | 0.03 | 61 | 1008.9 |
| 20260507204502 | 63 | 43 | 0.0 | 6.0 | 0.00 | 0.07 | 0.03 | 60 | 1008.9 |
| 20260507203006 | 63 | 33 | 0.0 | 9.0 | 0.00 | 0.07 | 0.03 | 60 | 1008.8 |
| 20260507201522 | 63 | 76 | 0.0 | 3.0 | 0.00 | 0.07 | 0.03 | 58 | 1009.1 |
| 20260507200014 | 62 | 56 | 0.0 | 1.0 | 0.00 | 0.07 | 0.03 | 64 | 1009.4 |
| 20260507194529 | 61 | 207 | 0.0 | 1.0 | 0.01 | 0.07 | 0.03 | 62 | 1009.9 |
| 20260507193031 | 61 | 207 | 0.0 | 0.0 | 0.01 | 0.07 | 0.03 | 68 | 1010.0 |
| 20260507191551 | 60 | 207 | 0.0 | 0.0 | 0.01 | 0.07 | 0.03 | 67 | 1010.0 |
| 20260507190049 | 60 | 208 | 0.0 | 0.0 | 0.01 | 0.07 | 0.03 | 74 | 1010.4 |
| 20260507184508 | 60 | 208 | 0.0 | 0.0 | 0.00 | 0.06 | 0.02 | 71 | 1010.4 |
| 20260507183010 | 59 | 208 | 0.0 | 0.0 | 0.00 | 0.06 | 0.02 | 72 | 1010.4 |
| 20260507181537 | 59 | 208 | 0.0 | 0.0 | 0.00 | 0.06 | 0.02 | 75 | 1010.4 |
| 20260507180032 | 59 | 208 | 0.0 | 0.0 | 0.01 | 0.06 | 0.02 | 76 | 1010.4 |
| 20260507174614 | 59 | 208 | 0.0 | 0.0 | 0.01 | 0.06 | 0.02 | 77 | 1010.4 |
| 20260507173051 | 58 | 208 | 0.0 | 0.0 | 0.01 | 0.06 | 0.02 | 74 | 1010.4 |
| 20260507171505 | 59 | 208 | 0.0 | 0.0 | 0.01 | 0.06 | 0.02 | 71 | 1010.7 |
| 20260507170058 | 59 | 209 | 0.0 | 0.0 | 0.00 | 0.05 | 0.01 | 68 | 1010.5 |
| 20260507170003 | 59 | 209 | 0.0 | 0.0 | 0.00 | 0.05 | 0.01 | 69 | 1010.5 |
| 20260507164510 | 60 | 198 | 0.0 | 4.0 | 0.00 | 0.05 | 0.01 | 68 | 1010.4 |
| 20260507163006 | 60 | 201 | 0.0 | 0.0 | 0.00 | 0.05 | 0.01 | 68 | 1010.4 |
| 20260507161521 | 60 | 201 | 0.0 | 1.0 | 0.00 | 0.05 | 0.01 | 67 | 1010.4 |
| 20260507160024 | 60 | 201 | 0.0 | 4.0 | 0.00 | 0.05 | 0.01 | 68 | 1010.7 |
| 20260507154542 | 60 | 197 | 0.0 | 1.0 | 0.00 | 0.05 | 0.01 | 68 | 1010.9 |
| 20260507153032 | 60 | 196 | 0.0 | 3.0 | 0.00 | 0.05 | 0.01 | 69 | 1010.7 |
| 20260507151600 | 61 | 195 | 0.0 | 4.0 | 0.00 | 0.05 | 0.01 | 69 | 1010.7 |
| 20260507150005 | 61 | 186 | 0.0 | 0.0 | 0.00 | 0.05 | 0.01 | 69 | 1010.4 |
| 20260507144528 | 61 | 172 | 0.0 | 1.0 | 0.00 | 0.05 | 0.01 | 69 | 1010.4 |
| 20260507143030 | 62 | 171 | 0.0 | 3.0 | 0.00 | 0.05 | 0.01 | 69 | 1010.3 |
| 20260507141614 | 62 | 170 | 0.0 | 3.0 | 0.00 | 0.06 | 0.01 | 70 | 1010.4 |
| 20260507140112 | 62 | 171 | 0.0 | 3.0 | 0.00 | 0.06 | 0.01 | 71 | 1010.2 |
| 20260507134513 | 62 | 170 | 0.0 | 0.0 | 0.00 | 0.06 | 0.01 | 73 | 1010.8 |
| 20260507133018 | 62 | 170 | 0.0 | 3.0 | 0.00 | 0.06 | 0.01 | 72 | 1010.6 |
| 20260507131612 | 61 | 172 | 0.0 | 3.0 | 0.00 | 0.06 | 0.01 | 74 | 1010.9 |
| 20260507130032 | 61 | 126 | 0.0 | 0.0 | 0.00 | 0.06 | 0.01 | 75 | 1010.4 |
| 20260507124554 | 61 | 126 | 0.0 | 0.0 | 0.00 | 0.06 | 0.01 | 75 | 1010.6 |
| 20260507123105 | 61 | 126 | 0.0 | 0.0 | 0.00 | 0.06 | 0.01 | 77 | 1010.7 |
| 20260507121516 | 60 | 126 | 0.0 | 1.0 | 0.00 | 0.06 | 0.01 | 78 | 1010.4 |
| 20260507120022 | 60 | 122 | 0.0 | 0.0 | 0.00 | 0.06 | 0.01 | 78 | 1010.4 |
| 20260507114538 | 60 | 122 | 0.0 | 1.0 | 0.00 | 0.06 | 0.01 | 79 | 1010.4 |
| 20260507113101 | 60 | 121 | 0.0 | 0.0 | 0.00 | 0.06 | 0.01 | 80 | 1010.0 |
| 20260507111548 | 60 | 121 | 0.0 | 0.0 | 0.00 | 0.06 | 0.01 | 81 | 1009.8 |
| 20260507110043 | 60 | 121 | 0.0 | 1.0 | 0.00 | 0.06 | 0.01 | 81 | 1009.8 |
| 20260507104602 | 60 | 121 | 0.0 | 1.0 | 0.00 | 0.06 | 0.01 | 81 | 1009.8 |
| 20260507103054 | 60 | 121 | 0.0 | 0.0 | 0.00 | 0.06 | 0.01 | 82 | 1009.7 |
| 20260507101523 | 60 | 119 | 0.0 | 0.0 | 0.00 | 0.06 | 0.01 | 81 | 1009.8 |
| 20260507100030 | 60 | 155 | 0.0 | 0.0 | 0.00 | 0.06 | 0.01 | 82 | 1009.6 |
| 20260507094528 | 61 | 155 | 0.0 | 3.0 | 0.00 | 0.06 | 0.01 | 82 | 1009.3 |
| 20260507093028 | 61 | 155 | 0.0 | 0.0 | 0.00 | 0.06 | 0.01 | 84 | 1009.8 |
| 20260507091552 | 61 | 155 | 0.0 | 0.0 | 0.00 | 0.06 | 0.01 | 84 | 1009.2 |
| 20260507090054 | 62 | 155 | 0.0 | 0.0 | 0.00 | 0.06 | 0.01 | 85 | 1009.2 |
| 20260507084539 | 62 | 155 | 0.0 | 0.0 | 0.00 | 0.06 | 0.01 | 85 | 1009.4 |
| 20260507083023 | 62 | 155 | 0.0 | 0.0 | 0.00 | 0.06 | 0.01 | 85 | 1009.2 |
| 20260507081538 | 62 | 155 | 0.0 | 0.0 | 0.00 | 0.06 | 0.01 | 85 | 1009.3 |
| 20260507080036 | 63 | 155 | 0.0 | 0.0 | 0.00 | 0.06 | 0.01 | 85 | 1009.6 |
| 20260507074554 | 63 | 155 | 0.0 | 0.0 | 0.00 | 0.06 | 0.01 | 85 | 1009.7 |
| 20260507073108 | 64 | 155 | 0.0 | 0.0 | 0.01 | 0.06 | 0.01 | 85 | 1009.5 |
| 20260507071518 | 64 | 155 | 0.0 | 0.0 | 0.01 | 0.06 | 0.01 | 86 | 1009.3 |
| 20260507070026 | 64 | 155 | 0.0 | 5.0 | 0.01 | 0.06 | 0.01 | 86 | 1009.1 |
| 20260507064545 | 64 | 169 | 0.0 | 4.0 | 0.01 | 0.06 | 0.01 | 86 | 1009.6 |